Regional Weather Roundup
Issued by NWS

Home | Current Version | Previous Version | Text Only | Print | Product List | Glossary On
Versions: 1 2 3 4 5 6 7 8 9 10 11 12 13 14 15 16 17 18 19 20 21 22 23 24 25 26 27 28 29 30 31 32 33 34 35 36 37 38 39 40 41 42 43 44 45 46 47 48 49 50
000
ASUS43 KOAX 221410
RWRNE

WEATHER ROUNDUP FOR NEBRASKA
NATIONAL WEATHER SERVICE OMAHA NE
900 AM CDT MON SEP 22 2014

NOTES: SATELLITE DATA IS BEING USED TO AUGMENT CLOUD COVER ABOVE
       12000 FEET.
       "FAIR" INDICATES FEW OR NO CLOUDS BELOW 12,000 FEET WITH NO
       SIGNIFICANT WEATHER AND/OR OBSTRUCTIONS TO VISIBILITY.

  * THESE STATIONS DO NOT REPORT WEATHER SUCH AS RAIN...SNOW OR FOG.

NEZ001>004-019>022-054>056-221500-
NEBRASKA PANHANDLE

CITY           SKY/WX    TMP DP  RH WIND       PRES   REMARKS
SCOTTSBLUFF    MOSUNNY   61  44  53 E9        30.15S
ALLIANCE       MOSUNNY   57  42  57 S20       30.15F
CHADRON        PTSUNNY   62  43  49 S13       30.11F
KIMBALL        CLOUDY    57  43  59 S10       30.17S
SIDNEY         PTSUNNY   60  42  51 S16       30.20F
$$

NEZ057>060-069>072-079>082-221500-
SOUTHWEST NEBRASKA

CITY           SKY/WX    TMP DP  RH WIND       PRES   REMARKS
NORTH PLATTE   PTSUNNY   57  44  62 SE8       30.26F
IMPERIAL       MOSUNNY   59  42  53 SE9       30.24F
LEXINGTON      MOSUNNY   57  50  76 S7        30.30S
MCCOOK         MOSUNNY   56  44  64 E6        30.28F
OGALLALA       PTSUNNY   58  45  62 NE3       30.23S
$$

NEZ005>010-023>029-035>040-094-221500-
NORTH CENTRAL NEBRASKA

CITY           SKY/WX    TMP DP  RH WIND       PRES   REMARKS
VALENTINE      PTSUNNY   57  43  59 S9        30.21F
AINSWORTH      MOSUNNY   54  45  70 S13       30.24S
BROKEN BOW     SUNNY     55  47  74 S12       30.28F
O`NEILL        SUNNY     53  49  86 S6        30.27F
ORD            SUNNY     49  46  90 CALM      30.28F
THEDFORD       MOSUNNY   59  45  58 S17       30.25F
$$

NEZ041-046>049-061>064-073>077-083>087-221500-
SOUTH CENTRAL NEBRASKA

CITY           SKY/WX    TMP DP  RH WIND       PRES   REMARKS
GRAND ISLAND   SUNNY     57  48  72 S7        30.31F
AURORA         SUNNY     56  48  74 SW6       30.30S
HASTINGS       SUNNY     55  46  71 S6        30.31F
HEBRON         SUNNY     49  46  88 CALM      30.32F
HOLDREGE       SUNNY     56  48  74 S7        30.30S
KEARNEY *      SUNNY     54  46  76 S9        30.31F
YORK           SUNNY     54  50  87 S3        30.31F
$$

NEZ011>018-030>034-042>045-221500-
NORTHEAST NEBRASKA

CITY           SKY/WX    TMP DP  RH WIND       PRES   REMARKS
NORFOLK        SUNNY     53  49  86 CALM      30.30S
ALBION         SUNNY     52  46  80 CALM      30.29F
BLAIR          SUNNY     57  51  79 S5        30.30F
COLUMBUS *     SUNNY     52  46  82 CALM      30.32S
FREMONT        SUNNY     54  50  88 CALM      30.31S
TEKAMAH        FOG       49  48  97 S3        30.31S VSB 1/4
WAYNE          SUNNY     48  46  91 CALM      30.31R
$$

NEZ050>053-065>068-078-088>093-221500-
SOUTHEAST NEBRASKA

CITY           SKY/WX    TMP DP  RH WIND       PRES   REMARKS
LINCOLN        SUNNY     52  48  86 CALM      30.33R
OMAHA EPPLEY   MOSUNNY   55  52  89 CALM      30.32S
BEATRICE       SUNNY     50  47  89 CALM      30.32R
FALLS CITY     SUNNY     54  51  90 CALM      30.32S
NEBRASKA CITY    N/A     56  47  72 SE3       30.32S
PLATTSMOUTH    SUNNY     56  51  84 SE3       30.31S
$$

NEZ044-045-051>053-067-221500-
OMAHA AREA

CITY           SKY/WX    TMP DP  RH WIND       PRES   REMARKS
OMAHA EPPLEY   MOSUNNY   55  52  89 CALM      30.32S
BLAIR          SUNNY     57  51  79 S5        30.30F
FREMONT        SUNNY     54  50  88 CALM      30.31S
MILLARD        SUNNY     55  51  88 CALM      30.31S
OFFUTT AFB     SUNNY     52  52 100 E3        30.31S
PLATTSMOUTH    SUNNY     56  51  84 SE3       30.31S
WAHOO          FAIR      53  50  89 CALM      30.31S
$$


USA.gov is the U.S. government's official web portal to all federal, state and local government web resources and services.